Wind_Speed
21 21 21 21 21 20 20 19 19 20 21 21 21 21 21 21 21 21 21 21 21 21 21 22 22 21 21 22 22 22 23 23 23 23 23 23 23 23 23 24 24 24 23 23
23 22 22 22 22 22 21 21 22 22 22 23 22 21 21 21 21 21 22 22 22 23 23 23 23 23 23 23 23 24 24 24 24 24 23 23 24 24 25 25 25 24 24 24
24 24 24 24 23 23 23 23 23 24 24 23 23 23 22 23 23 22 22 22 23 24 24 24 24 24 24 24 24 25 25 25 25 25 25 25 25 25 25 25 24 24 24 25
25 26 26 24 24 23 24 25 25 25 25 25 25 24 25 24 24 24 24 24 23 24 25 25 25 25 25 25 26 26 26 25 25 26 26 26 26 26 26 26 25 25 25 25
27 26 26 25 25 25 25 26 25 25 25 25 25 25 25 25 25 25 24 24 24 24 24 25 25 25 25 25 27 27 26 26 26 26 27 27 27 27 27 26 26 26 26 27
29 27 26 26 26 25 25 27 25 25 25 26 25 25 24 25 25 25 25 25 26 25 24 25 25 26 26 26 26 26 26 27 27 27 27 28 28 27 27 26 26 26 27 27
29 28 27 28 26 25 26 26 26 25 25 25 25 25 24 25 25 26 26 26 26 25 24 25 25 26 26 26 26 26 26 27 27 27 28 28 27 27 26 25 25 26 27 27
28 28 28 28 27 27 27 27 27 27 26 26 25 25 24 24 25 25 25 25 25 24 25 25 26 27 27 27 26 26 27 27 27 27 28 27 27 26 26 26 26 26 27 27
28 28 29 29 28 28 28 28 28 27 27 25 25 25 24 24 24 25 25 25 25 26 26 26 27 27 27 26 26 27 27 28 27 26 27 27 27 27 26 26 26 26 26 26
29 29 29 29 29 29 29 29 28 27 27 26 26 25 25 25 25 26 26 27 27 27 27 27 27 27 26 25 25 26 27 27 27 26 26 26 25 26 26 26 27 26 26 26
30 30 30 30 29 29 29 29 28 28 27 27 27 26 26 26 26 26 27 27 27 27 26 26 26 26 26 25 25 26 26 26 26 26 25 25 25 26 26 26 27 27 27 27
30 30 30 30 29 30 29 28 28 27 27 27 27 27 27 26 26 26 27 27 27 26 26 26 25 25 25 24 24 25 25 25 26 26 26 25 26 25 25 26 26 27 27 27
30 30 29 29 29 29 29 28 28 27 27 27 27 27 27 27 26 26 26 26 26 26 25 25 24 24 24 23 24 24 25 25 26 26 26 25 25 25 25 25 25 26 27 27
31 31 30 29 30 30 29 28 28 27 27 27 27 26 26 26 26 25 25 25 25 24 24 24 23 24 24 23 24 25 25 26 25 25 25 25 25 25 25 25 24 25 26 26
30 31 31 30 30 30 29 29 28 27 27 26 26 25 25 25 25 25 25 24 24 23 22 23 23 23 23 23 24 25 25 25 25 25 24 24 24 24 24 24 24 24 25 25
29 29 30 30 29 29 28 28 29 29 28 26 26 25 25 24 24 24 24 24 23 23 22 22 21 22 23 23 24 24 24 23 23 24 24 23 23 22 22 23 23 23 24 25
28 28 28 28 27 27 27 27 27 28 27 27 27 26 25 24 23 23 23 23 22 22 21 21 21 21 21 21 22 23 22 22 22 22 22 22 22 22 22 22 23 23 24 24
27 26 26 26 26 25 25 26 26 25 25 26 26 26 24 23 22 21 22 23 23 22 21 21 21 21 22 22 21 21 21 22 21 21 21 21 22 22 22 23 23 23 23 23
26 25 25 24 24 25 25 25 25 25 25 25 25 24 23 22 21 21 22 22 22 22 22 22 22 21 21 21 21 21 21 21 21 21 22 21 21 21 22 22 23 23 23 23
23 24 24 24 24 23 23 24 24 24 24 24 23 22 21 21 21 21 21 21 21 21 21 22 21 21 20 20 20 20 20 21 21 22 22 22 22 22 22 23 23 23 23 23
21 22 22 23 22 22 22 22 22 23 22 22 21 21 21 21 21 21 22 22 22 22 21 21 20 19 19 19 20 20 20 21 21 22 22 22 23 22 23 23 23 23 23 24
20 20 20 20 20 20 21 21 21 22 22 21 21 20 20 21 21 21 21 21 20 19 19 19 19 19 19 20 20 20 21 22 22 23 23 23 22 22 23 23 23 23 23 24
18 18 18 18 18 19 20 21 21 20 19 18 18 18 19 20 20 21 20 20 19 19 18 18 19 19 20 20 21 21 22 23 23 23 23 23 23 24 24 24 24 24 24 24
18 17 16 17 17 17 18 18 19 18 18 17 17 17 19 19 20 20 19 18 18 17 18 18 19 19 20 21 22 22 23 23 23 23 23 24 24 24 25 25 25 24 24 24
16 16 15 15 16 16 16 16 16 16 16 16 17 17 17 17 17 17 17 17 18 18 19 20 20 21 21 22 22 23 23 23 23 23 23 24 24 24 24 24 24 24 24 25
13 14 14 14 14 15 15 15 15 15 15 15 15 16 16 17 17 16 17 18 18 18 19 20 20 21 22 22 23 23 23 23 23 23 24 24 24 23 23 24 24 24 24 25
13 13 14 14 14 14 13 14 14 14 14 15 15 16 16 16 17 17 17 18 18 19 20 20 21 21 22 23 23 23 23 23 23 23 23 23 23 23 24 24 25 25 25 26
Wind_Direction
257 260 263 266 268 267 266 267 272 277 279 281 283 284 285 285 286 286 286 285 285 285 286 285 286 287 291 293 295 296 298 300 301 303 305 305 307 306 304 303 301 300 298 295
260 261 262 265 266 266 267 269 273 275 278 281 280 280 283 284 285 286 285 284 284 283 284 282 282 284 287 291 293 295 298 299 301 303 304 305 306 306 304 303 301 300 298 296
262 263 264 265 266 265 267 271 273 275 278 281 279 279 281 283 283 284 283 284 283 282 280 280 280 283 287 288 291 295 296 297 299 300 302 303 302 302 303 303 301 300 300 298
261 263 264 266 265 267 270 272 274 275 277 280 282 280 280 280 280 280 282 284 282 280 279 278 278 280 283 286 289 292 295 296 297 298 299 301 302 303 304 303 301 300 301 300
260 265 267 266 266 268 270 271 272 274 275 278 280 281 281 281 281 283 283 282 280 279 278 277 276 278 280 285 287 289 293 295 295 297 298 299 301 302 302 302 301 301 302 302
260 262 264 266 268 269 271 272 273 273 275 276 279 279 280 281 282 283 282 281 279 277 276 278 276 277 280 284 285 288 292 294 294 294 296 298 299 301 301 301 301 301 302 302
259 261 263 265 267 269 270 271 272 273 276 277 276 277 279 280 282 283 283 283 283 281 278 278 278 278 279 282 284 288 291 292 293 293 294 296 298 300 301 300 300 301 302 302
256 258 261 264 265 266 269 270 272 273 275 278 278 278 280 281 283 284 285 285 283 281 278 278 278 279 280 282 283 286 289 291 293 294 294 295 296 297 298 298 299 301 301 302
254 257 260 262 264 266 268 270 271 273 275 277 278 280 281 280 281 283 284 284 282 280 279 279 280 280 280 280 281 285 289 291 293 294 294 294 295 295 296 297 298 300 300 301
253 256 259 262 264 266 268 268 269 271 273 275 277 279 279 279 280 283 284 283 281 281 280 280 279 278 280 282 284 287 291 294 294 293 294 295 296 296 295 295 297 298 300 301
255 257 259 261 263 266 268 268 267 268 270 274 276 278 279 279 281 283 284 283 280 280 280 280 280 279 280 282 288 291 293 294 294 294 294 295 296 296 296 296 296 298 300 302
255 258 260 262 264 267 269 266 266 266 269 272 273 276 277 280 282 283 283 283 282 280 280 281 281 278 280 284 287 290 292 293 294 293 295 295 295 296 296 298 299 300 302 303
254 257 260 263 265 267 269 267 267 267 268 271 272 274 276 278 281 282 282 281 281 278 277 278 280 280 283 284 286 289 292 294 295 295 295 295 295 296 297 298 299 300 302 303
254 256 259 262 264 265 266 266 266 266 267 269 271 273 275 278 280 282 282 282 282 281 279 279 279 281 284 285 287 290 291 293 295 295 294 295 296 297 298 299 300 302 302 304
255 258 260 262 263 264 265 266 266 265 266 268 270 271 274 277 279 280 280 280 280 280 281 282 283 283 283 285 287 289 291 292 293 294 294 295 297 299 299 300 302 304 305 305
257 259 261 262 262 262 263 263 263 264 266 268 269 272 274 276 277 278 277 278 279 279 280 282 286 285 282 284 287 289 292 293 294 295 294 295 296 298 300 302 303 304 305 307
256 259 260 261 260 259 260 262 264 263 265 268 269 271 272 274 275 277 277 279 280 278 279 281 283 285 287 289 289 290 292 294 296 297 296 296 295 296 299 301 302 304 307 308
255 257 259 259 258 259 260 262 264 262 263 266 267 268 270 272 275 277 278 280 281 280 281 281 282 285 288 290 291 292 295 296 297 297 298 298 298 298 299 301 303 305 308 309
255 256 257 257 258 258 259 261 262 261 261 263 266 267 269 271 273 275 278 280 282 282 282 282 282 286 289 290 293 294 296 297 298 299 300 300 300 299 300 301 303 304 306 307
255 255 256 256 257 258 259 258 259 261 262 263 264 265 266 268 272 275 276 277 279 279 279 281 283 286 290 292 293 295 295 295 297 298 299 298 298 298 299 300 301 303 305 307
254 254 253 252 253 255 257 257 257 259 262 262 262 263 265 267 270 273 275 277 277 275 276 279 282 287 291 292 292 294 295 297 299 300 300 299 299 299 299 299 299 301 304 306
255 253 251 251 253 254 255 255 256 257 259 261 262 262 263 267 270 273 274 274 274 274 276 280 283 288 291 292 293 294 295 296 298 299 300 301 301 301 301 300 300 302 303 304
254 252 251 253 255 256 256 256 257 257 258 261 264 265 266 266 269 271 271 271 273 274 276 280 284 287 289 290 292 294 296 298 298 299 300 300 301 302 302 302 301 301 301 303
254 253 251 252 253 254 256 256 256 258 260 264 267 269 269 269 270 270 268 269 273 276 278 282 285 286 288 289 291 294 296 298 299 300 300 300 300 301 301 301 301 300 300 302
253 252 251 251 254 255 255 256 257 259 262 265 267 269 270 271 272 271 268 270 274 277 280 282 284 286 289 291 293 295 296 297 298 300 300 301 300 301 301 300 300 299 300 302
251 250 250 252 252 252 254 255 257 261 264 266 269 272 273 275 276 276 274 273 274 278 280 283 286 289 290 292 293 294 295 296 296 298 300 300 300 299 299 299 300 300 300 301
250 251 250 251 252 253 253 253 255 259 264 267 270 272 274 276 278 278 279 279 278 279 282 284 288 290 291 291 292 294 296 298 299 300 300 301 301 300 299 299 300 300 300 300
Height
5879 5879 5879 5880 5880 5880 5880 5880 5881 5880 5878 5877 5875 5874 5873 5872 5870 5869 5867 5866 5864 5863 5861 5859 5858 5856 5855 5853 5851 5849 5846 5844 5841 5838 5834 5831 5829 5826 5823 5819 5816 5813 5811 5809
5872 5873 5873 5873 5874 5874 5874 5874 5874 5873 5872 5871 5869 5868 5867 5866 5865 5863 5862 5860 5859 5857 5855 5854 5852 5851 5849 5847 5845 5843 5841 5838 5835 5832 5829 5826 5823 5820 5816 5813 5810 5807 5804 5802
5866 5866 5866 5867 5868 5868 5868 5867 5867 5867 5866 5864 5863 5862 5861 5860 5859 5857 5856 5854 5853 5851 5849 5848 5846 5845 5843 5841 5839 5837 5835 5832 5829 5826 5823 5820 5817 5813 5810 5806 5803 5800 5798 5795
5859 5860 5860 5863 5861 5861 5861 5860 5860 5859 5858 5857 5856 5856 5854 5853 5852 5851 5849 5848 5846 5844 5843 5841 5840 5839 5837 5835 5833 5831 5828 5826 5823 5820 5817 5814 5811 5807 5804 5800 5797 5794 5792 5789
5852 5852 5853 5854 5853 5853 5853 5853 5853 5852 5851 5850 5849 5849 5847 5846 5845 5843 5842 5841 5839 5838 5836 5835 5833 5832 5830 5828 5826 5824 5822 5819 5816 5814 5811 5808 5805 5801 5797 5794 5791 5788 5785 5782
5843 5845 5846 5847 5846 5846 5847 5845 5845 5844 5844 5843 5842 5842 5841 5839 5838 5836 5835 5833 5831 5830 5829 5828 5826 5825 5823 5821 5819 5817 5815 5812 5810 5807 5804 5801 5798 5795 5791 5788 5785 5782 5779 5776
5835 5836 5838 5838 5838 5839 5840 5839 5838 5837 5836 5836 5835 5834 5833 5832 5830 5829 5827 5826 5824 5822 5821 5820 5819 5817 5816 5814 5812 5810 5808 5805 5802 5800 5797 5794 5791 5788 5784 5781 5778 5776 5773 5770
5827 5829 5831 5829 5829 5830 5831 5830 5829 5829 5829 5828 5827 5826 5825 5824 5823 5821 5820 5818 5817 5815 5814 5812 5811 5810 5808 5806 5805 5802 5800 5798 5795 5792 5789 5787 5784 5781 5778 5775 5772 5769 5766 5763
5820 5821 5820 5820 5821 5821 5822 5822 5821 5821 5821 5820 5819 5818 5818 5817 5815 5814 5812 5811 5809 5808 5806 5805 5803 5802 5800 5798 5797 5795 5792 5790 5787 5784 5781 5779 5776 5774 5771 5768 5765 5762 5759 5756
5810 5811 5811 5812 5812 5813 5813 5813 5813 5813 5813 5812 5812 5811 5810 5809 5808 5806 5805 5803 5801 5800 5799 5797 5795 5794 5792 5791 5789 5787 5785 5782 5779 5776 5774 5772 5769 5766 5764 5761 5758 5756 5753 5749
5801 5802 5802 5803 5804 5804 5804 5804 5804 5804 5804 5804 5804 5803 5802 5801 5800 5798 5797 5795 5794 5792 5791 5790 5788 5786 5785 5784 5782 5780 5777 5774 5772 5769 5767 5765 5762 5759 5757 5754 5751 5749 5746 5742
5792 5793 5794 5795 5795 5795 5795 5796 5796 5796 5796 5796 5796 5795 5794 5793 5792 5791 5789 5788 5786 5785 5784 5782 5780 5779 5778 5776 5774 5772 5770 5767 5765 5762 5760 5757 5755 5753 5750 5747 5745 5741 5738 5735
5783 5784 5785 5786 5786 5786 5787 5787 5787 5788 5788 5788 5788 5787 5786 5785 5784 5783 5781 5780 5778 5777 5776 5775 5773 5772 5771 5769 5767 5765 5763 5761 5758 5755 5753 5750 5748 5746 5744 5741 5738 5735 5732 5729
5773 5775 5776 5777 5778 5778 5778 5779 5779 5779 5779 5780 5780 5779 5778 5777 5776 5775 5774 5772 5771 5769 5768 5767 5766 5765 5764 5762 5760 5758 5756 5754 5751 5749 5746 5744 5742 5739 5737 5734 5731 5728 5725 5722
5764 5766 5767 5768 5768 5769 5770 5770 5771 5771 5771 5772 5772 5771 5771 5770 5769 5768 5767 5765 5764 5762 5762 5760 5759 5758 5757 5755 5753 5752 5750 5747 5745 5743 5740 5738 5735 5733 5730 5728 5725 5722 5719 5716
5756 5757 5758 5758 5759 5760 5761 5761 5762 5763 5763 5763 5764 5764 5763 5763 5762 5761 5759 5758 5757 5756 5755 5754 5753 5751 5750 5748 5746 5745 5743 5741 5739 5736 5734 5732 5729 5727 5724 5721 5718 5715 5712 5709
5747 5748 5749 5749 5750 5751 5752 5753 5753 5754 5754 5755 5755 5756 5756 5755 5755 5754 5752 5751 5750 5749 5748 5747 5746 5745 5743 5742 5740 5738 5737 5735 5733 5730 5728 5726 5723 5721 5718 5715 5713 5710 5707 5703
5737 5739 5740 5741 5742 5743 5743 5744 5745 5746 5746 5747 5747 5748 5748 5748 5748 5747 5746 5745 5744 5743 5742 5741 5740 5739 5737 5736 5734 5732 5731 5729 5726 5724 5722 5720 5717 5715 5712 5709 5706 5703 5700 5697
5729 5730 5731 5732 5733 5734 5735 5736 5737 5738 5739 5739 5740 5740 5740 5741 5741 5740 5739 5738 5738 5737 5736 5735 5734 5732 5731 5729 5728 5726 5724 5722 5720 5718 5716 5713 5711 5709 5706 5703 5700 5697 5694 5691
5721 5722 5723 5724 5725 5727 5728 5729 5730 5731 5731 5732 5732 5733 5733 5733 5733 5733 5733 5732 5731 5730 5729 5728 5727 5726 5724 5723 5722 5720 5718 5716 5714 5712 5710 5707 5705 5702 5700 5697 5694 5691 5688 5685
5714 5714 5715 5717 5718 5719 5720 5722 5723 5724 5724 5725 5725 5726 5726 5727 5727 5726 5726 5725 5725 5723 5722 5722 5721 5719 5718 5717 5716 5714 5712 5710 5708 5706 5703 5701 5698 5695 5693 5690 5687 5685 5682 5679
5707 5707 5708 5709 5711 5712 5714 5715 5716 5717 5718 5718 5719 5719 5719 5720 5720 5719 5719 5719 5718 5717 5716 5716 5715 5714 5712 5711 5709 5708 5706 5704 5702 5699 5697 5694 5691 5689 5686 5684 5681 5678 5675 5673
5701 5702 5703 5704 5705 5706 5707 5708 5709 5710 5711 5712 5712 5713 5713 5713 5713 5713 5713 5712 5712 5711 5710 5710 5709 5708 5706 5705 5703 5701 5699 5697 5695 5692 5690 5687 5685 5682 5680 5677 5674 5671 5669 5666
5695 5696 5697 5699 5700 5701 5702 5703 5704 5705 5706 5706 5706 5706 5706 5706 5707 5706 5706 5706 5706 5705 5704 5704 5703 5701 5700 5698 5697 5695 5693 5690 5688 5685 5683 5680 5677 5675 5672 5670 5667 5664 5661 5659
5690 5692 5693 5694 5695 5696 5697 5698 5698 5699 5700 5700 5701 5700 5700 5700 5701 5700 5700 5700 5700 5699 5698 5697 5696 5695 5693 5692 5690 5688 5686 5683 5681 5678 5676 5673 5670 5667 5665 5662 5659 5657 5654 5651
5686 5687 5688 5689 5690 5691 5692 5693 5694 5694 5695 5695 5695 5695 5695 5695 5695 5695 5694 5694 5694 5693 5692 5691 5689 5688 5686 5684 5683 5681 5678 5676 5674 5671 5669 5666 5663 5660 5658 5655 5652 5650 5647 5644
5682 5683 5684 5685 5686 5687 5688 5689 5689 5690 5690 5691 5691 5690 5690 5690 5689 5689 5689 5688 5687 5686 5685 5684 5682 5681 5679 5677 5675 5673 5671 5669 5666 5664 5661 5658 5655 5653 5650 5648 5645 5642 5639 5636